Tracking 32941 objects as of 15-Jan-2026
HD Live streaming from Space Station
objects crossing your sky now

STARLINK-33814

Track STARLINK-33814 now!
10-day predictions
STARLINK-33814 is classified as:


NORAD ID: 63582
Int'l Code: 2025-076P
Perigee: 489.5 km
Apogee: 490.9 km
Inclination: 43.0 °
Period: 94.3 minutes
Semi major axis: 6861 km
RCS: Unknown
Launch date: April 14, 2025
Source: United States (US)
Launch site: AIR FORCE EASTERN TEST RANGE (AFETR)
Your satellite tracking list
Your tracking list is empty




NASA's NSSDC Master Catalog

Two Line Element Set (TLE):
1 63582U 25076P   26015.07439017  .00005510  00000-0  20962-3 0  9992
2 63582  43.0030 264.2272 0001069 274.3108  85.7621 15.27576479 43630
Source of the keplerian elements: AFSPC